EA8CHC Sevilla ES current weather conditions

sailwx.info

Wind from 211 at 5 knots gusting 8

Air temperature 6.7° C
Dewpoint 2.7° C

Last reported at 2017-Mar-23 03:52 UTC.
Time now 2017-Mar-23 04:13 UTC

Location: N 37°26' W 006°03'.
View on Google Maps.

See reports from other nearby stations

  
Tides and Currents Weather Stations Pressure Air Temp Water Temp Dewpoint Dewpoint Depression Visibility Wind Speed Wind Dir Waves Ship Positions
date/time (UTC)wind fromknots sea level pressurealtimeterstation pressurevisibilityair tempwater tempwave heightnotes
2017-Mar-23 03:52 211 5 gusting 8 6.7
2017-Mar-23 03:47 288 4 gusting 6 6.7
2017-Mar-23 03:42 271 3 gusting 6 6.7
2017-Mar-23 03:37 262 4 gusting 7 6.7
2017-Mar-23 03:32 272 5 gusting 7 6.7
2017-Mar-23 03:27 264 4 gusting 7 7.2
2017-Mar-23 03:22 268 4 gusting 8 7.2
2017-Mar-23 03:17 254 4 gusting 8 6.7
2017-Mar-23 03:12 273 5 gusting 8 6.7
2017-Mar-23 03:07 262 5 gusting 8 6.7
2017-Mar-23 03:02 247 5 gusting 8 6.7
2017-Mar-23 02:57 253 5 gusting 8 6.7
2017-Mar-23 02:52 290 4 gusting 9 6.7
2017-Mar-23 02:47 230 5 gusting 9 7.2
2017-Mar-23 02:42 242 5 gusting 9 7.2
2017-Mar-23 02:37 264 4 gusting 8 7.2
2017-Mar-23 02:32 263 4 gusting 6 7.2
2017-Mar-23 02:27 244 4 gusting 7 7.2
2017-Mar-23 02:22 267 4 gusting 7 7.2
2017-Mar-23 02:17 256 5 gusting 7 7.2
2017-Mar-23 02:12 263 4 gusting 7 7.2
2017-Mar-23 02:07 266 3 gusting 7 7.2
2017-Mar-23 02:02 253 3 gusting 7 7.2
2017-Mar-23 01:57 249 3 gusting 7 7.2
2017-Mar-23 01:52 252 3 gusting 6 7.2
2017-Mar-23 01:47 252 4 gusting 6 7.2
2017-Mar-23 01:42 267 4 gusting 6 6.7
2017-Mar-23 01:37 246 4 gusting 6 6.7
2017-Mar-23 01:32 266 2 gusting 5 6.7
2017-Mar-23 01:27 259 1 gusting 5 7.2
2017-Mar-23 01:22 252 2 gusting 7 7.2
2017-Mar-23 01:17 271 4 gusting 7 7.2
2017-Mar-23 01:12 255 4 gusting 7 7.2
2017-Mar-23 01:07 283 4 gusting 7 7.8
2017-Mar-23 01:02 266 5 gusting 7 7.8
2017-Mar-23 00:57 259 5 gusting 7 7.8
2017-Mar-23 00:52 266 4 gusting 6 7.8
2017-Mar-23 00:47 267 4 gusting 6 7.8
2017-Mar-23 00:42 265 4 gusting 6 7.8
2017-Mar-23 00:37 264 4 gusting 6 8.3
2017-Mar-23 00:32 240 4 gusting 6 8.3
2017-Mar-23 00:27 271 3 gusting 5 8.3
2017-Mar-23 00:22 257 3 gusting 5 8.3
2017-Mar-23 00:17 259 2 gusting 6 8.3
2017-Mar-23 00:12 241 2 gusting 6 8.3
2017-Mar-23 00:07 261 3 gusting 6 8.3
2017-Mar-23 00:02 258 3 gusting 6 8.3
2017-Mar-22 23:57 260 3 gusting 6 8.3
2017-Mar-22 23:52 273 3 gusting 6 8.3
2017-Mar-22 23:47 276 3 gusting 7 8.3
2017-Mar-22 23:42 272 3 gusting 9 8.3
2017-Mar-22 23:37 290 4 gusting 9 8.3
2017-Mar-22 23:32 286 5 gusting 9 8.9
2017-Mar-22 23:27 278 6 gusting 9 8.9
2017-Mar-22 23:22 272 5 gusting 8 8.3
2017-Mar-22 23:17 296 3 gusting 6 8.3
2017-Mar-22 23:12 282 3 gusting 6 8.3
2017-Mar-22 23:07 290 3 gusting 7 8.3
2017-Mar-22 23:02 277 3 gusting 7 8.9
2017-Mar-22 22:57 315 5 gusting 7 8.9
2017-Mar-22 22:52 276 5 gusting 8 8.9
2017-Mar-22 22:47 299 4 gusting 8 8.9
2017-Mar-22 22:42 267 5 gusting 8 8.9
2017-Mar-22 22:37 271 4 gusting 10 9.4
2017-Mar-22 22:32 313 5 gusting 11 9.4
2017-Mar-22 22:27 333 6 gusting 11 10.0
2017-Mar-22 22:22 351 6 gusting 11 10.0
2017-Mar-22 22:17 327 4 gusting 7 10.0
2017-Mar-22 22:12 304 4 gusting 6 10.0
2017-Mar-22 22:07 305 4 gusting 6 10.6
2017-Mar-22 22:02 299 4 gusting 6 10.6
2017-Mar-22 21:57 283 4 gusting 6 10.6
2017-Mar-22 21:52 261 4 gusting 6 11.1
2017-Mar-22 21:47 271 3 gusting 8 11.1
2017-Mar-22 21:42 268 4 gusting 13 11.1
2017-Mar-22 21:37 289 6 gusting 13 11.1
2017-Mar-22 21:32 266 7 gusting 13 11.1
2017-Mar-22 21:27 290 6 gusting 11 11.1
2017-Mar-22 21:22 258 6 gusting 10 11.1
2017-Mar-22 21:17 250 6 gusting 10 11.1
2017-Mar-22 21:12 250 6 gusting 10 11.1
2017-Mar-22 21:07 246 6 gusting 10 11.7
2017-Mar-22 21:02 282 6 gusting 10 11.7
2017-Mar-22 20:57 273 6 gusting 10 11.7
2017-Mar-22 20:52 278 6 gusting 10 11.7
2017-Mar-22 20:47 279 4 gusting 8 11.7
2017-Mar-22 20:42 256 3 gusting 8 11.7
2017-Mar-22 20:37 244 3 gusting 9 11.7
2017-Mar-22 20:32 243 4 gusting 9 11.7
2017-Mar-22 20:27 269 5 gusting 9 11.7
2017-Mar-22 20:22 214 4 gusting 9 11.7
2017-Mar-22 20:17 282 2 gusting 6 11.7
2017-Mar-22 20:12 269 2 gusting 7 11.7
2017-Mar-22 20:07 277 3 gusting 7 11.7
2017-Mar-22 20:02 250 3 gusting 9 11.7
2017-Mar-22 19:57 250 3 gusting 9 11.7
2017-Mar-22 19:52 261 3 gusting 12 11.7
2017-Mar-22 19:47 259 3 gusting 12 11.7
2017-Mar-22 19:42 259 3 gusting 6 11.7
2017-Mar-22 19:37 262 3 gusting 9 11.7
2017-Mar-22 19:32 218 3 gusting 9 11.7
2017-Mar-22 19:27 259 4 gusting 9 11.7
2017-Mar-22 19:22 221 4 gusting 7 11.7
2017-Mar-22 19:17 259 3 gusting 8 11.7
2017-Mar-22 19:12 275 3 gusting 8 12.2
2017-Mar-22 19:07 273 3 gusting 7 12.2
2017-Mar-22 19:02 288 2 gusting 6 12.2
2017-Mar-22 18:57 229 2 gusting 6 12.2
2017-Mar-22 18:52 252 2 gusting 6 12.2
2017-Mar-22 18:47 244 3 gusting 8 12.2
2017-Mar-22 18:42 263 4 gusting 8 12.2
2017-Mar-22 18:37 223 4 gusting 8 12.2
2017-Mar-22 18:32 242 4 gusting 8 12.2
2017-Mar-22 18:27 222 5 gusting 8 12.2
2017-Mar-22 18:22 255 4 gusting 7 12.2
2017-Mar-22 18:17 246 3 gusting 9 12.2
2017-Mar-22 18:12 259 4 gusting 9 12.2
2017-Mar-22 18:07 266 6 gusting 9 12.2
2017-Mar-22 18:02 279 5 gusting 8 12.2
2017-Mar-22 17:57 279 4 gusting 10 12.2
2017-Mar-22 17:52 277 5 gusting 13 12.2
2017-Mar-22 17:47 311 7 gusting 14 12.2
2017-Mar-22 17:42 261 8 gusting 15 12.2
2017-Mar-22 17:37 266 9 gusting 16 12.2
2017-Mar-22 17:32 281 10 gusting 18 12.2
2017-Mar-22 17:27 247 11 gusting 18 12.8
2017-Mar-22 17:22 277 12 gusting 17 12.8
2017-Mar-22 17:17 277 10 gusting 17 12.8
2017-Mar-22 17:12 298 8 gusting 19 12.8
2017-Mar-22 17:07 288 10 gusting 19 12.8
2017-Mar-22 17:02 277 10 gusting 19 12.8
2017-Mar-22 16:57 265 7 gusting 16 12.8
2017-Mar-22 16:52 273 7 gusting 14 12.8
2017-Mar-22 16:47 280 8 gusting 15 13.3
2017-Mar-22 16:42 291 8 gusting 15 14.4
2017-Mar-22 16:37 267 8 gusting 15 15.6
2017-Mar-22 16:32 209 7 gusting 19 15.6
2017-Mar-22 16:27 269 9 gusting 20 16.1
2017-Mar-22 16:22 246 11 gusting 20 16.1
2017-Mar-22 16:17 217 10 gusting 20 16.1
2017-Mar-22 16:12 232 11 gusting 23 16.7
2017-Mar-22 16:07 217 12 gusting 23 16.7
2017-Mar-22 15:57 217 8 gusting 19 16.7
2017-Mar-22 15:52 292 7 gusting 15 17.2
2017-Mar-22 15:47 242 8 gusting 15 17.2
2017-Mar-22 15:42 240 8 gusting 18 16.7
2017-Mar-22 15:37 188 8 gusting 19 16.7
2017-Mar-22 15:32 204 10 gusting 19 16.7
2017-Mar-22 15:27 223 9 gusting 19 16.7
2017-Mar-22 15:22 206 9 gusting 16 16.7
2017-Mar-22 15:17 248 8 gusting 17 16.7
2017-Mar-22 15:12 204 7 gusting 17 16.7
2017-Mar-22 15:02 239 5 gusting 13 16.7
2017-Mar-22 14:57 250 5 gusting 13 16.7
2017-Mar-22 14:52 261 6 gusting 16 16.7
2017-Mar-22 14:47 202 8 gusting 16 16.7
2017-Mar-22 14:42 217 8 gusting 15 16.7
2017-Mar-22 14:37 211 8 gusting 17 16.7
2017-Mar-22 14:32 221 8 gusting 17 16.7
2017-Mar-22 14:27 233 8 gusting 17 16.7
2017-Mar-22 14:22 217 8 gusting 15 16.7
2017-Mar-22 14:17 213 8 gusting 20 16.7
2017-Mar-22 14:12 200 6 gusting 20 16.7
2017-Mar-22 14:07 253 8 gusting 20 16.7
2017-Mar-22 14:02 236 9 gusting 19 16.1
2017-Mar-22 13:57 242 7 gusting 19 16.7
2017-Mar-22 13:52 180 7 gusting 14 16.7
2017-Mar-22 13:47 241 9 gusting 14 15.6
2017-Mar-22 13:42 213 8 gusting 14 15.6
2017-Mar-22 13:37 230 6 gusting 18 16.1
2017-Mar-22 13:32 273 7 gusting 18 16.1
2017-Mar-22 13:27 225 7 gusting 18 16.1
2017-Mar-22 13:22 266 7 gusting 15 16.1
2017-Mar-22 13:17 248 6 gusting 16 16.1
2017-Mar-22 13:12 265 7 gusting 17 16.1
2017-Mar-22 13:07 244 7 gusting 17 16.1
2017-Mar-22 13:02 260 8 gusting 15 16.1
2017-Mar-22 12:57 242 9 gusting 17 16.1
2017-Mar-22 12:52 259 9 gusting 17 16.1
2017-Mar-22 12:47 284 8 gusting 17 16.1
2017-Mar-22 12:42 276 8 gusting 18 16.1
2017-Mar-22 12:37 246 10 gusting 18 15.6
2017-Mar-22 12:32 250 9 gusting 18 15.6
2017-Mar-22 12:27 306 7 gusting 16 16.1
2017-Mar-22 12:22 274 6 gusting 18 15.6
2017-Mar-22 12:17 242 8 gusting 18 15.6
2017-Mar-22 12:12 281 8 gusting 18 15.6
2017-Mar-22 12:07 247 6 gusting 16 15.6
2017-Mar-22 12:02 279 6 gusting 16 15.6
2017-Mar-22 11:57 223 7 gusting 16 15.6
2017-Mar-22 11:52 247 8 gusting 19 15.6
2017-Mar-22 11:47 246 9 gusting 19 15.6
2017-Mar-22 11:42 273 9 gusting 19 15.6
2017-Mar-22 11:37 251 8 gusting 18 15.6
2017-Mar-22 11:32 276 7 gusting 18 15.6
2017-Mar-22 11:27 283 6 gusting 14 15.0
2017-Mar-22 11:22 275 6 gusting 14 15.0
2017-Mar-22 11:17 240 6 gusting 15 14.4
2017-Mar-22 11:12 254 5 gusting 15 15.0
2017-Mar-22 11:07 259 5 gusting 15 15.0
2017-Mar-22 11:02 270 5 gusting 10 15.0
2017-Mar-22 10:57 289 5 gusting 10 15.0
2017-Mar-22 10:52 257 5 gusting 10 15.0
2017-Mar-22 10:47 243 3 gusting 11 15.0
2017-Mar-22 10:42 254 3 gusting 12 14.4
2017-Mar-22 10:37 196 5 gusting 12 14.4
2017-Mar-22 10:32 232 6 gusting 12 14.4
2017-Mar-22 10:27 269 5 gusting 11 14.4
2017-Mar-22 10:22 245 3 gusting 7 14.4
2017-Mar-22 10:17 223 3 gusting 7 14.4
2017-Mar-22 10:12 163 3 gusting 7 13.9
2017-Mar-22 10:07 204 2 gusting 6 13.9
2017-Mar-22 10:02 193 1 gusting 9 13.3
2017-Mar-22 09:57 238 2 gusting 9 13.3
2017-Mar-22 09:52 284 3 gusting 9 13.3
2017-Mar-22 09:47 197 3 gusting 7 13.9
2017-Mar-22 09:42 211 2 gusting 8 13.9
2017-Mar-22 09:37 192 2 gusting 8 13.3
2017-Mar-22 09:32 267 3 gusting 8 13.3
2017-Mar-22 09:27 169 2 gusting 6 13.3
2017-Mar-22 09:22 201 1 gusting 6 13.3
2017-Mar-22 09:17 208 3 gusting 6 13.3
2017-Mar-22 09:12 181 2 gusting 6 12.8
2017-Mar-22 09:07 204 1 gusting 6 12.8
2017-Mar-22 09:02 228 2 gusting 6 12.8
2017-Mar-22 08:57 221 3 gusting 6 12.8
2017-Mar-22 08:52 200 2 gusting 6 12.8
2017-Mar-22 08:47 145 2 gusting 6 12.8
2017-Mar-22 08:42 224 3 gusting 6 12.2
2017-Mar-22 08:37 159 4 gusting 7 12.2
2017-Mar-22 08:32 232 4 gusting 7 11.7
2017-Mar-22 08:27 236 4 gusting 7 11.7
2017-Mar-22 08:22 188 4 gusting 7 11.7
2017-Mar-22 08:17 188 5 gusting 7 11.7
2017-Mar-22 08:12 224 5 gusting 7 11.1
2017-Mar-22 08:07 211 4 gusting 7 11.1
2017-Mar-22 08:02 211 4 gusting 6 10.6
2017-Mar-22 07:57 211 4 gusting 6 10.6
2017-Mar-22 07:52 217 4 gusting 6 10.0
2017-Mar-22 07:47 197 3 gusting 6 10.0
2017-Mar-22 07:42 222 2 gusting 6 9.4
2017-Mar-22 07:37 222 2 gusting 6 9.4
2017-Mar-22 07:32 243 2 gusting 6 9.4
2017-Mar-22 07:27 239 2 gusting 5 9.4
2017-Mar-22 07:22 267 2 gusting 5 9.4
2017-Mar-22 07:17 252 1 gusting 4 9.4
2017-Mar-22 07:12 230 0 gusting 5 9.4
2017-Mar-22 07:07 236 0 gusting 5 9.4
2017-Mar-22 07:02 238 1 gusting 5 9.4
2017-Mar-22 06:57 236 1 gusting 4 9.4
2017-Mar-22 06:52 223 1 gusting 4 8.9
2017-Mar-22 06:47 244 1 gusting 4 8.9
2017-Mar-22 06:42 246 1 gusting 4 8.9
2017-Mar-22 06:37 250 1 gusting 6 8.9
2017-Mar-22 06:32 242 1 gusting 6 8.9
2017-Mar-22 06:27 242 1 gusting 6 8.9
2017-Mar-22 06:22 249 2 gusting 6 8.9
2017-Mar-22 06:17 225 3 gusting 6 8.3
2017-Mar-22 06:12 253 3 gusting 6 8.3
2017-Mar-22 06:07 260 3 gusting 6 8.9
2017-Mar-22 06:02 267 3 gusting 6 8.9
2017-Mar-22 05:57 250 2 gusting 5 8.9
2017-Mar-22 05:52 242 1 gusting 4 8.9
2017-Mar-22 05:47 237 1 gusting 4 8.9
2017-Mar-22 05:42 228 0 gusting 4 8.9
2017-Mar-22 05:37 239 0 gusting 4 8.3
2017-Mar-22 05:32 275 1 gusting 7 8.3
2017-Mar-22 05:27 275 2 gusting 7 8.3
2017-Mar-22 05:22 277 2 gusting 7 8.9
2017-Mar-22 05:17 267 2 gusting 7 8.9
2017-Mar-22 05:12 320 3 gusting 8 9.4
2017-Mar-22 05:07 256 4 gusting 8 9.4
2017-Mar-22 05:02 270 5 gusting 8 9.4
2017-Mar-22 04:57 236 6 gusting 8 9.4
2017-Mar-22 04:52 271 6 gusting 7 10.0
2017-Mar-22 04:47 274 5 gusting 7 9.4
2017-Mar-22 04:42 277 3 gusting 5 9.4
2017-Mar-22 04:37 257 3 gusting 6 9.4
2017-Mar-22 04:32 282 4 gusting 6 9.4
2017-Mar-22 04:27 265 4 gusting 7 9.4
2017-Mar-22 04:22 296 4 gusting 7 9.4
2017-Mar-22 04:17 255 5 gusting 9 9.4
2017-Mar-22 04:12 254 6 gusting 12 9.4
2017-Mar-22 04:07 268 6 gusting 12 9.4
2017-Mar-22 04:02 270 6 gusting 12 9.4
2017-Mar-22 03:57 273 6 gusting 9 9.4
2017-Mar-22 03:52 261 6 gusting 9 9.4
2017-Mar-22 03:47 306 6 gusting 10 9.4
2017-Mar-22 03:42 273 7 gusting 12 10.0
2017-Mar-22 03:37 270 7 gusting 12 10.0
2017-Mar-22 03:32 282 8 gusting 12 10.0
2017-Mar-22 03:27 282 8 gusting 13 10.0
2017-Mar-22 03:22 279 8 gusting 13 10.0
2017-Mar-22 03:17 249 8 gusting 13 10.6
2017-Mar-22 03:12 291 8 gusting 12 10.6
2017-Mar-22 03:07 286 8 gusting 12 10.6
2017-Mar-22 03:02 286 6 gusting 12 10.6
2017-Mar-22 02:57 273 6 gusting 12 10.6
2017-Mar-22 02:52 281 6 gusting 12 10.0
2017-Mar-22 02:47 248 6 gusting 10 10.0
2017-Mar-22 02:42 299 5 gusting 9 10.0
2017-Mar-22 02:37 294 4 gusting 7 10.0
2017-Mar-22 02:32 277 4 gusting 7 10.0
2017-Mar-22 02:27 269 4 gusting 6 10.0
2017-Mar-22 02:22 288 4 gusting 6 10.0
2017-Mar-22 02:17 283 4 gusting 6 10.6
2017-Mar-22 02:12 267 4 gusting 9 10.6
2017-Mar-22 02:07 257 5 gusting 10 10.6
2017-Mar-22 02:02 263 6 gusting 11 10.6
2017-Mar-22 01:57 261 7 gusting 11 10.6
2017-Mar-22 01:52 273 7 gusting 10 10.6
2017-Mar-22 01:47 278 6 gusting 9 11.1
2017-Mar-22 01:42 268 6 gusting 9 11.1
2017-Mar-22 01:37 259 6 gusting 10 11.1
2017-Mar-22 01:32 274 6 gusting 10 11.1
2017-Mar-22 01:27 259 6 gusting 10 11.1
2017-Mar-22 01:22 248 6 gusting 9 11.1
2017-Mar-22 01:17 273 6 gusting 10 11.1
2017-Mar-22 01:12 276 6 gusting 10 11.1
2017-Mar-22 01:07 274 5 gusting 10 11.1
2017-Mar-22 01:02 267 5 gusting 9 11.7
2017-Mar-22 00:57 265 5 gusting 9 11.7
2017-Mar-22 00:52 275 6 gusting 9 11.7
2017-Mar-22 00:47 274 6 gusting 9 11.7
2017-Mar-22 00:42 283 6 gusting 10 11.7
2017-Mar-22 00:37 274 6 gusting 11 11.7
2017-Mar-22 00:32 263 7 gusting 11 11.7
2017-Mar-22 00:27 266 7 gusting 12 12.2
2017-Mar-22 00:22 255 8 gusting 13 12.2
2017-Mar-22 00:17 271 8 gusting 13 12.2
2017-Mar-22 00:12 284 8 gusting 13 12.2
2017-Mar-22 00:07 271 8 gusting 12 12.2
2017-Mar-22 00:02 268 8 gusting 12 12.2
2017-Mar-21 23:57 276 8 gusting 12 12.2
2017-Mar-21 23:52 288 8 gusting 12 12.2
2017-Mar-21 23:47 282 8 gusting 11 12.8
2017-Mar-21 23:42 284 7 gusting 11 12.2
2017-Mar-21 23:37 277 7 gusting 11 12.8
2017-Mar-21 23:32 275 7 gusting 11 12.8
2017-Mar-21 23:27 259 7 gusting 11 12.8
2017-Mar-21 23:22 309 7 gusting 11 12.8
2017-Mar-21 23:17 283 7 gusting 11 12.8
2017-Mar-21 23:12 263 7 gusting 11 12.8
2017-Mar-21 23:07 276 7 gusting 10 13.3
2017-Mar-21 23:02 292 8 gusting 11 13.3
2017-Mar-21 22:57 279 7 gusting 11 13.3
2017-Mar-21 22:52 271 7 gusting 13 13.3
2017-Mar-21 22:47 267 7 gusting 13 13.9
2017-Mar-21 22:42 273 7 gusting 13 13.9
2017-Mar-21 22:37 290 6 gusting 12 13.9
2017-Mar-21 22:32 277 6 gusting 12 13.9
2017-Mar-21 22:27 297 5 gusting 12 13.9
2017-Mar-21 22:22 309 5 gusting 8 13.9
2017-Mar-21 22:17 296 5 gusting 9 13.9
2017-Mar-21 22:12 284 5 gusting 11 13.9
2017-Mar-21 22:07 281 6 gusting 11 13.9
2017-Mar-21 22:02 287 7 gusting 11 14.4
2017-Mar-21 21:57 253 7 gusting 10 14.4
2017-Mar-21 21:52 273 6 gusting 9 14.4
2017-Mar-21 21:47 252 6 gusting 9 14.4
2017-Mar-21 21:42 268 5 gusting 8 14.4
2017-Mar-21 21:37 269 4 gusting 6 15.0
2017-Mar-21 21:32 245 2 gusting 6 15.0
2017-Mar-21 21:27 264 2 gusting 7 15.0
2017-Mar-21 21:22 242 3 gusting 7 15.0
2017-Mar-21 21:17 252 3 gusting 9 15.6
2017-Mar-21 21:12 259 4 gusting 9 15.6
2017-Mar-21 21:07 242 5 gusting 9 15.6
2017-Mar-21 21:02 270 5 gusting 9 15.6
2017-Mar-21 20:57 240 4 gusting 9 15.6
2017-Mar-21 20:52 248 4 gusting 9 15.6
2017-Mar-21 20:47 257 4 gusting 10 15.6
2017-Mar-21 20:42 268 4 gusting 12 15.6
2017-Mar-21 20:37 259 5 gusting 12 15.6
2017-Mar-21 20:32 253 5 gusting 12 15.6
2017-Mar-21 20:27 272 5 gusting 10 15.6
2017-Mar-21 20:22 257 5 gusting 10 15.6
2017-Mar-21 20:17 264 5 gusting 10 15.6
2017-Mar-21 20:12 267 5 gusting 11 15.6
2017-Mar-21 20:07 197 5 gusting 11 15.6
2017-Mar-21 20:02 240 5 gusting 11 15.6
2017-Mar-21 19:57 236 5 gusting 12 15.6
2017-Mar-21 19:52 235 6 gusting 12 15.6
2017-Mar-21 19:47 248 6 gusting 12 15.6
2017-Mar-21 19:42 225 5 gusting 11 15.6
2017-Mar-21 19:37 232 4 gusting 10 16.1
2017-Mar-21 19:32 250 5 gusting 10 16.1
2017-Mar-21 19:27 265 5 gusting 10 16.1
2017-Mar-21 19:22 211 5 gusting 12 16.1
2017-Mar-21 19:17 238 5 gusting 12 16.1
2017-Mar-21 19:12 208 6 gusting 12 16.1
2017-Mar-21 19:07 239 6 gusting 12 16.1
2017-Mar-21 19:02 263 6 gusting 13 16.1
2017-Mar-21 18:57 227 6 gusting 14 16.1
2017-Mar-21 18:52 242 7 gusting 14 16.1
2017-Mar-21 18:47 191 6 gusting 14 16.1
2017-Mar-21 18:42 229 5 gusting 11 16.1
2017-Mar-21 18:37 215 5 gusting 12 16.1
2017-Mar-21 18:32 223 5 gusting 12 16.7
2017-Mar-21 18:27 198 6 gusting 12 16.7
2017-Mar-21 18:22 246 6 gusting 11 16.7
2017-Mar-21 18:17 225 6 gusting 13 16.7
2017-Mar-21 18:12 252 6 gusting 13 16.7
2017-Mar-21 18:07 216 6 gusting 13 16.7
2017-Mar-21 18:02 226 6 gusting 13 16.7
2017-Mar-21 17:57 235 6 gusting 12 16.7
2017-Mar-21 17:52 207 6 gusting 13 17.2
2017-Mar-21 17:47 233 6 gusting 14 17.2
2017-Mar-21 17:42 215 8 gusting 14 16.7
2017-Mar-21 17:37 240 8 gusting 14 16.7
2017-Mar-21 17:32 213 7 gusting 14 16.7
2017-Mar-21 17:27 239 6 gusting 14 17.2
2017-Mar-21 17:22 221 6 gusting 13 17.2
2017-Mar-21 17:17 211 6 gusting 13 17.2
2017-Mar-21 17:12 260 6 gusting 13 17.2
2017-Mar-21 17:07 224 6 gusting 11 17.2
2017-Mar-21 17:02 253 5 gusting 12 17.2
2017-Mar-21 16:57 242 6 gusting 12 17.8
2017-Mar-21 16:52 263 6 gusting 13 17.8
2017-Mar-21 16:47 278 5 gusting 14 17.8
2017-Mar-21 16:42 238 6 gusting 14 17.8
2017-Mar-21 16:37 247 9 gusting 14 17.8
2017-Mar-21 16:32 252 7 gusting 14 17.8
2017-Mar-21 16:27 278 6 gusting 13 17.8
2017-Mar-21 16:22 240 6 gusting 16 17.8
2017-Mar-21 16:17 257 7 gusting 16 18.3
2017-Mar-21 16:12 232 7 gusting 16 18.3
2017-Mar-21 16:07 248 6 gusting 13 18.3
2017-Mar-21 16:02 265 6 gusting 12 17.8
2017-Mar-21 15:57 266 6 gusting 14 17.8
2017-Mar-21 15:52 251 7 gusting 14 17.8
2017-Mar-21 15:47 247 7 gusting 13 17.8
2017-Mar-21 15:42 274 7 gusting 14 17.8
2017-Mar-21 15:37 246 8 gusting 14 17.8
2017-Mar-21 15:32 279 9 gusting 14 17.8
2017-Mar-21 15:27 273 8 gusting 15 17.8
2017-Mar-21 15:22 288 9 gusting 15 17.8
2017-Mar-21 15:17 265 8 gusting 15 17.8
2017-Mar-21 15:12 259 6 gusting 12 18.3
2017-Mar-21 15:07 227 6 gusting 12 18.3
2017-Mar-21 15:02 287 6 gusting 13 18.3
2017-Mar-21 14:57 239 6 gusting 17 18.3
2017-Mar-21 14:52 261 8 gusting 17 18.3
2017-Mar-21 14:47 275 8 gusting 17 18.3
2017-Mar-21 14:42 285 6 gusting 13 18.3
2017-Mar-21 14:37 263 6 gusting 13 18.3
2017-Mar-21 14:32 227 6 gusting 13 18.3
2017-Mar-21 14:27 277 6 gusting 14 18.3
2017-Mar-21 14:22 219 7 gusting 16 17.8
2017-Mar-21 14:17 223 7 gusting 16 17.8
2017-Mar-21 14:12 230 7 gusting 16 17.8
2017-Mar-21 14:07 278 8 gusting 15 17.8
2017-Mar-21 14:02 246 9 gusting 15 17.8
2017-Mar-21 13:57 267 9 gusting 14 17.8
2017-Mar-21 13:52 237 9 gusting 16 17.2
2017-Mar-21 13:47 261 8 gusting 16 17.2
2017-Mar-21 13:42 271 8 gusting 17 17.8
2017-Mar-21 13:37 221 9 gusting 17 17.8
2017-Mar-21 13:32 262 11 gusting 17 17.8
2017-Mar-21 13:27 284 11 gusting 17 17.2
2017-Mar-21 13:22 279 10 gusting 17 17.8
2017-Mar-21 13:17 246 8 gusting 17 17.8
2017-Mar-21 13:12 273 6 gusting 17 17.8
2017-Mar-21 13:07 246 8 gusting 17 17.8
2017-Mar-21 13:02 261 8 gusting 17 17.8
2017-Mar-21 12:57 271 6 gusting 17 17.8
2017-Mar-21 12:52 271 6 gusting 13 17.8
2017-Mar-21 12:47 249 6 gusting 15 17.2
2017-Mar-21 12:42 292 6 gusting 15 17.2
2017-Mar-21 12:37 296 6 gusting 15 17.2
2017-Mar-21 12:32 226 6 gusting 13 16.7
2017-Mar-21 12:27 243 6 gusting 13 16.7
2017-Mar-21 12:22 304 5 gusting 14 17.2
2017-Mar-21 12:17 243 5 gusting 14 17.2
2017-Mar-21 12:12 266 6 gusting 14 16.7
2017-Mar-21 12:07 240 6 gusting 13 16.7
2017-Mar-21 12:02 226 6 gusting 13 16.7
2017-Mar-21 11:57 257 6 gusting 13 16.7
2017-Mar-21 11:52 267 6 gusting 14 16.7
2017-Mar-21 11:47 241 6 gusting 14 16.7
2017-Mar-21 11:42 254 7 gusting 14 16.7
2017-Mar-21 11:37 291 6 gusting 13 16.7
2017-Mar-21 11:32 246 5 gusting 13 16.7
2017-Mar-21 11:27 238 6 gusting 13 16.1
2017-Mar-21 11:22 277 5 gusting 11 16.1
2017-Mar-21 11:17 242 5 gusting 10 16.1
2017-Mar-21 11:12 257 5 gusting 10 15.6
2017-Mar-21 11:07 227 6 gusting 13 15.6
2017-Mar-21 11:02 304 7 gusting 13 15.6
2017-Mar-21 10:57 269 6 gusting 13 15.6
2017-Mar-21 10:52 277 5 gusting 13 15.6
2017-Mar-21 10:47 284 6 gusting 13 15.6
2017-Mar-21 10:42 277 5 gusting 10 15.6
2017-Mar-21 10:37 207 5 gusting 10 15.6
2017-Mar-21 10:32 246 5 gusting 10 15.6
2017-Mar-21 10:27 266 6 gusting 10 15.0
2017-Mar-21 10:22 199 5 gusting 10 15.0
2017-Mar-21 10:17 279 5 gusting 10 15.0
2017-Mar-21 10:12 223 6 gusting 10 14.4
2017-Mar-21 10:07 211 5 gusting 12 14.4
2017-Mar-21 10:02 254 5 gusting 12 14.4
2017-Mar-21 09:57 257 5 gusting 12 14.4
2017-Mar-21 09:52 263 6 gusting 12 13.9
2017-Mar-21 09:47 268 6 gusting 12 13.9
2017-Mar-21 09:42 252 4 gusting 9 13.9
2017-Mar-21 09:37 261 5 gusting 9 13.9
2017-Mar-21 09:32 257 4 gusting 10 13.3
2017-Mar-21 09:27 277 4 gusting 10 13.3
2017-Mar-21 09:22 275 5 gusting 10 13.3
2017-Mar-21 09:17 231 4 gusting 9 13.3
2017-Mar-21 09:12 275 4 gusting 9 13.3
2017-Mar-21 09:07 271 5 gusting 9 12.8
2017-Mar-21 09:02 269 4 gusting 9 12.8
2017-Mar-21 08:57 236 4 gusting 9 12.8
2017-Mar-21 08:52 254 4 gusting 10 12.8
2017-Mar-21 08:47 247 5 gusting 10 12.2
2017-Mar-21 08:42 260 5 gusting 10 12.2
2017-Mar-21 08:37 249 5 gusting 10 12.2
2017-Mar-21 08:32 257 4 gusting 10 11.7
2017-Mar-21 08:27 232 2 gusting 8 11.7
2017-Mar-21 08:22 267 2 gusting 7 11.7
2017-Mar-21 08:17 276 3 gusting 7 11.1
2017-Mar-21 08:12 252 3 gusting 7 11.1
2017-Mar-21 08:07 292 3 gusting 7 11.1
2017-Mar-21 08:02 273 4 gusting 7 11.1
2017-Mar-21 07:57 267 4 gusting 6 11.1
2017-Mar-21 07:52 279 4 gusting 6 11.1
2017-Mar-21 07:47 274 3 gusting 6 11.1
2017-Mar-21 07:42 294 3 gusting 5 11.1
2017-Mar-21 07:37 267 2 gusting 5 10.6
2017-Mar-21 07:32 265 1 gusting 6 10.6
2017-Mar-21 07:27 278 2 gusting 6 10.6
2017-Mar-21 07:22 259 3 gusting 7 10.0
2017-Mar-21 07:17 259 4 gusting 7 9.4
2017-Mar-21 07:12 246 5 gusting 7 9.4
2017-Mar-21 07:07 273 4 gusting 7 9.4
2017-Mar-21 07:02 269 3 gusting 6 9.4
2017-Mar-21 06:57 255 2 gusting 7 9.4
2017-Mar-21 06:52 259 3 gusting 7 9.4
2017-Mar-21 06:47 248 5 gusting 9 9.4
2017-Mar-21 06:42 262 6 gusting 10 9.4
2017-Mar-21 06:37 286 6 gusting 10 9.4
2017-Mar-21 06:32 276 6 gusting 10 9.4
2017-Mar-21 06:27 276 6 gusting 8 9.4
2017-Mar-21 06:22 300 5 gusting 8 9.4
2017-Mar-21 06:17 282 6 gusting 10 9.4
2017-Mar-21 06:12 271 6 gusting 10 9.4
2017-Mar-21 06:07 285 6 gusting 10 9.4
2017-Mar-21 06:02 269 6 gusting 10 9.4
2017-Mar-21 05:57 290 6 gusting 9 9.4
2017-Mar-21 05:52 275 5 gusting 9 9.4
2017-Mar-21 05:47 273 6 gusting 9 9.4
2017-Mar-21 05:42 261 6 gusting 9 9.4
2017-Mar-21 05:37 265 5 gusting 8 9.4
2017-Mar-21 05:32 282 4 gusting 7 9.4
2017-Mar-21 05:27 300 5 gusting 10 9.4
2017-Mar-21 05:22 317 6 gusting 9 9.4
2017-Mar-21 05:17 268 6 gusting 9 9.4
2017-Mar-21 05:12 287 6 gusting 10 9.4
2017-Mar-21 05:07 259 6 gusting 10 8.9
2017-Mar-21 05:02 275 7 gusting 10 9.4
2017-Mar-21 04:57 277 7 gusting 10 9.4
2017-Mar-21 04:52 277 7 gusting 10 9.4
2017-Mar-21 04:47 283 7 gusting 10 9.4
2017-Mar-21 04:42 274 6 gusting 10 9.4
2017-Mar-21 04:37 284 6 gusting 10 9.4
2017-Mar-21 04:32 275 3 gusting 6 9.4
2017-Mar-21 04:27 282 1 gusting 5 8.9
2017-Mar-21 04:22 310 1 gusting 5 8.9
2017-Mar-21 04:17 312 1 gusting 3 9.4
2017-Mar-21 04:12 323 1 gusting 3 9.4
2017-Mar-21 04:07 336 1 gusting 3 9.4
2017-Mar-21 04:02 322 0 gusting 4 9.4